owner,sensor,date,latitude,longitude,vertical_datum,direction_of_sea_water_velocity,sea_water_speed,upward_sea_water_velocity,qcFlag 
TABS,ioos:station:wmo:42043:1,2009-02-01T00:00:00Z,28.9818,-94.9186,2.0,11.05573686,7.509360825,-99999.0,'11133222,11111222,99999999' 
TABS,ioos:station:wmo:42043:1,2009-02-01T00:30:00Z,28.9818,-94.9186,2.0,339.8315855,5.539684107,-99999.0,'11133222,11111222,99999999' 
TABS,ioos:station:wmo:42043:1,2009-02-01T01:00:00Z,28.9818,-94.9186,2.0,357.9687473,7.334609737,-99999.0,'11133222,11111222,99999999' 
TABS,ioos:station:wmo:42043:1,2009-02-01T01:30:00Z,28.9818,-94.9186,2.0,345.5687339,7.382960111,-99999.0,'11133222,11111222,99999999' 
TABS,ioos:station:wmo:42043:1,2009-02-01T02:00:00Z,28.9818,-94.9186,2.0,358.2891851,7.033135858,-99999.0,'11133222,11111222,99999999' 
TABS,ioos:station:wmo:42043:1,2009-02-01T02:30:00Z,28.9818,-94.9186,2.0,328.4788932,8.282058923,-99999.0,'11133222,11111222,99999999' 
TABS,ioos:station:wmo:42043:1,2009-02-01T03:00:00Z,28.9818,-94.9186,2.0,337.0461776,4.61546314,-99999.0,'11133222,11111222,99999999' 
TABS,ioos:station:wmo:42043:1,2009-02-01T03:30:00Z,28.9818,-94.9186,2.0,355.5717514,7.382039014,-99999.0,'11133222,11111222,99999999' 
TABS,ioos:station:wmo:42043:1,2009-02-01T04:00:00Z,28.9818,-94.9186,2.0,350.4990395,7.269724892,-99999.0,'11133222,11111222,99999999' 
TABS,ioos:station:wmo:42043:1,2009-02-01T04:30:00Z,28.9818,-94.9186,2.0,13.38075024,8.901640298,-99999.0,'11133222,11111222,99999999' 
TABS,ioos:station:wmo:42043:1,2009-02-01T05:00:00Z,28.9818,-94.9186,2.0,352.666567,7.834085779,-99999.0,'11133222,11111222,99999999' 
TABS,ioos:station:wmo:42043:1,2009-02-01T05:30:00Z,28.9818,-94.9186,2.0,351.5475479,9.796412609,-99999.0,'11133222,11111222,99999999' 
TABS,ioos:station:wmo:42043:1,2009-02-01T06:00:00Z,28.9818,-94.9186,2.0,5.586799447,9.655863504,-99999.0,'11133222,11111222,99999999' 
TABS,ioos:station:wmo:42043:1,2009-02-01T06:30:00Z,28.9818,-94.9186,2.0,358.7604236,13.40313769,-99999.0,'11111222,11111222,99999999' 
TABS,ioos:station:wmo:42043:1,2009-02-01T07:00:00Z,28.9818,-94.9186,2.0,7.571081656,12.75115681,-99999.0,'11111222,11111222,99999999' 
TABS,ioos:station:wmo:42043:1,2009-02-01T07:30:00Z,28.9818,-94.9186,2.0,358.4066159,12.94500676,-99999.0,'11111222,11111222,99999999' 
TABS,ioos:station:wmo:42043:1,2009-02-01T08:00:00Z,28.9818,-94.9186,2.0,356.1127061,14.01224108,-99999.0,'11111222,11111222,99999999' 
TABS,ioos:station:wmo:42043:1,2009-02-01T08:30:00Z,28.9818,-94.9186,2.0,0.33723978,13.60023529,-99999.0,'11111222,11111222,99999999' 
TABS,ioos:station:wmo:42043:1,2009-02-01T09:00:00Z,28.9818,-94.9186,2.0,359.808266,11.940067,-99999.0,'11111222,11144222,99999999' 
TABS,ioos:station:wmo:42043:1,2009-02-01T09:30:00Z,28.9818,-94.9186,2.0,0.102432733,11.21001784,-99999.0,'11111222,11111222,99999999' 
TABS,ioos:station:wmo:42043:1,2009-02-01T10:00:00Z,28.9818,-94.9186,2.0,21.27084553,13.23136047,-99999.0,'11111222,11111222,99999999' 
TABS,ioos:station:wmo:42043:1,2009-02-01T10:30:00Z,28.9818,-94.9186,2.0,27.52364492,16.57605502,-99999.0,'11111222,11111222,99999999' 
TABS,ioos:station:wmo:42043:1,2009-02-01T11:00:00Z,28.9818,-94.9186,2.0,32.95851842,16.50645025,-99999.0,'11111222,11111222,99999999' 
TABS,ioos:station:wmo:42043:1,2009-02-01T11:30:00Z,28.9818,-94.9186,2.0,39.96711325,21.35919708,-99999.0,'11111222,11111222,99999999' 
TABS,ioos:station:wmo:42043:1,2009-02-01T12:00:00Z,28.9818,-94.9186,2.0,49.11949606,21.36031133,-99999.0,'11111222,11111222,99999999' 
TABS,ioos:station:wmo:42043:1,2009-02-01T12:30:00Z,28.9818,-94.9186,2.0,51.15687802,21.95501993,-99999.0,'11111222,11111222,99999999' 
TABS,ioos:station:wmo:42043:1,2009-02-01T13:00:00Z,28.9818,-94.9186,2.0,57.71323745,20.49954634,-99999.0,'11111222,11111222,99999999' 
TABS,ioos:station:wmo:42043:1,2009-02-01T13:30:00Z,28.9818,-94.9186,2.0,57.97559733,19.08420289,-99999.0,'11111222,11111222,99999999' 
TABS,ioos:station:wmo:42043:1,2009-02-01T14:00:00Z,28.9818,-94.9186,2.0,64.29801433,16.92448227,-99999.0,'11111222,11111222,99999999' 
TABS,ioos:station:wmo:42043:1,2009-02-01T14:30:00Z,28.9818,-94.9186,2.0,69.71824674,15.40513226,-99999.0,'11111222,11111222,99999999' 
TABS,ioos:station:wmo:42043:1,2009-02-01T15:00:00Z,28.9818,-94.9186,2.0,63.73528485,17.92009487,-99999.0,'11111222,11111222,99999999' 
TABS,ioos:station:wmo:42043:1,2009-02-01T15:30:00Z,28.9818,-94.9186,2.0,66.39862467,16.43471935,-99999.0,'11111222,11111222,99999999' 
TABS,ioos:station:wmo:42043:1,2009-02-01T16:00:00Z,28.9818,-94.9186,2.0,67.65735246,14.15247328,-99999.0,'11111222,11111222,99999999' 
TABS,ioos:station:wmo:42043:1,2009-02-01T16:30:00Z,28.9818,-94.9186,2.0,74.23561674,11.74163958,-99999.0,'11111222,11111222,99999999' 
TABS,ioos:station:wmo:42043:1,2009-02-01T17:00:00Z,28.9818,-94.9186,2.0,83.46875338,9.934475326,-99999.0,'11133222,11111222,99999999' 
TABS,ioos:station:wmo:42043:1,2009-02-01T17:30:00Z,28.9818,-94.9186,2.0,92.36196237,9.948452141,-99999.0,'11133222,11111222,99999999' 
TABS,ioos:station:wmo:42043:1,2009-02-01T18:00:00Z,28.9818,-94.9186,2.0,109.6832815,5.225322957,-99999.0,'11133222,11111222,99999999' 
TABS,ioos:station:wmo:42043:1,2009-02-01T18:30:00Z,28.9818,-94.9186,2.0,144.9441658,4.422216639,-99999.0,'11133222,11111222,99999999' 
TABS,ioos:station:wmo:42043:1,2009-02-01T19:00:00Z,28.9818,-94.9186,2.0,157.4202698,6.563078546,-99999.0,'11133222,11111222,99999999' 
TABS,ioos:station:wmo:42043:1,2009-02-01T19:30:00Z,28.9818,-94.9186,2.0,175.586175,8.836203936,-99999.0,'11133222,11111222,99999999' 
TABS,ioos:station:wmo:42043:1,2009-02-01T20:00:00Z,28.9818,-94.9186,2.0,183.8545253,9.371200563,-99999.0,'11133222,11111222,99999999' 
TABS,ioos:station:wmo:42043:1,2009-02-01T20:30:00Z,28.9818,-94.9186,2.0,185.2305845,7.129691438,-99999.0,'11133222,11111222,99999999' 
TABS,ioos:station:wmo:42043:1,2009-02-01T21:00:00Z,28.9818,-94.9186,2.0,184.393384,8.615317754,-99999.0,'11133222,11111222,99999999' 
TABS,ioos:station:wmo:42043:1,2009-02-01T21:30:00Z,28.9818,-94.9186,2.0,187.931494,8.985966837,-99999.0,'11133222,11111222,99999999' 
TABS,ioos:station:wmo:42043:1,2009-02-01T22:00:00Z,28.9818,-94.9186,2.0,203.4684704,6.126826258,-99999.0,'11133222,11111222,99999999' 
TABS,ioos:station:wmo:42043:1,2009-02-01T22:30:00Z,28.9818,-94.9186,2.0,195.3931006,7.270832139,-99999.0,'11133222,11111222,99999999' 
TABS,ioos:station:wmo:42043:1,2009-02-01T23:00:00Z,28.9818,-94.9186,2.0,192.0908094,10.78935123,-99999.0,'11111222,11111222,99999999' 
TABS,ioos:station:wmo:42043:1,2009-02-01T23:30:00Z,28.9818,-94.9186,2.0,198.3579258,14.16069207,-99999.0,'11111222,11111222,99999999' 
TABS,ioos:station:wmo:42043:1,2009-02-02T00:00:00Z,28.9818,-94.9186,2.0,199.6761365,17.07714555,-99999.0,'11111222,11111222,99999999' 
TABS,ioos:station:wmo:42043:1,2009-02-02T00:30:00Z,28.9818,-94.9186,2.0,212.4842398,19.77389188,-99999.0,'11111222,11111222,99999999' 
TABS,ioos:station:wmo:42043:1,2009-02-02T01:00:00Z,28.9818,-94.9186,2.0,208.2219052,15.31005225,-99999.0,'11111222,11111222,99999999' 
TABS,ioos:station:wmo:42043:1,2009-02-02T01:30:00Z,28.9818,-94.9186,2.0,220.8516953,20.82226933,-99999.0,'11111222,11111222,99999999' 
TABS,ioos:station:wmo:42043:1,2009-02-02T02:00:00Z,28.9818,-94.9186,2.0,223.108755,25.92958349,-99999.0,'11111222,11111222,99999999' 
TABS,ioos:station:wmo:42043:1,2009-02-02T02:30:00Z,28.9818,-94.9186,2.0,230.4284165,28.1773118,-99999.0,'11111222,11111222,99999999' 
TABS,ioos:station:wmo:42043:1,2009-02-02T03:00:00Z,28.9818,-94.9186,2.0,229.026276,27.39021723,-99999.0,'11111222,11111222,99999999' 
TABS,ioos:station:wmo:42043:1,2009-02-02T03:30:00Z,28.9818,-94.9186,2.0,222.0602386,30.19783602,-99999.0,'11111222,11111222,99999999' 
TABS,ioos:station:wmo:42043:1,2009-02-02T04:00:00Z,28.9818,-94.9186,2.0,224.143708,27.45294884,-99999.0,'11111222,11111222,99999999' 
TABS,ioos:station:wmo:42043:1,2009-02-02T04:30:00Z,28.9818,-94.9186,2.0,221.9614793,30.15098672,-99999.0,'11111222,11111222,99999999' 
TABS,ioos:station:wmo:42043:1,2009-02-02T05:00:00Z,28.9818,-94.9186,2.0,222.9332122,30.19895694,-99999.0,'11111222,11111222,99999999' 
TABS,ioos:station:wmo:42043:1,2009-02-02T05:30:00Z,28.9818,-94.9186,2.0,220.7443803,31.6383217,-99999.0,'11111222,11111222,99999999' 
TABS,ioos:station:wmo:42043:1,2009-02-02T06:00:00Z,28.9818,-94.9186,2.0,222.3702465,34.21756859,-99999.0,'11111222,11111222,99999999' 
TABS,ioos:station:wmo:42043:1,2009-02-02T06:30:00Z,28.9818,-94.9186,2.0,226.3968621,33.06,-99999.0,'11111222,11111222,99999999' 
TABS,ioos:station:wmo:42043:1,2009-02-02T07:00:00Z,28.9818,-94.9186,2.0,228.2092744,33.97320268,-99999.0,'11111222,11111222,99999999' 
TABS,ioos:station:wmo:42043:1,2009-02-02T07:30:00Z,28.9818,-94.9186,2.0,231.5138794,32.90908689,-99999.0,'11111222,11111222,99999999' 
TABS,ioos:station:wmo:42043:1,2009-02-02T08:00:00Z,28.9818,-94.9186,2.0,230.2991801,29.32177519,-99999.0,'11111222,11111222,99999999' 
TABS,ioos:station:wmo:42043:1,2009-02-02T08:30:00Z,28.9818,-94.9186,2.0,227.3447296,30.93354328,-99999.0,'11111222,11111222,99999999' 
TABS,ioos:station:wmo:42043:1,2009-02-02T09:00:00Z,28.9818,-94.9186,2.0,228.140501,32.26424957,-99999.0,'11111222,11111222,99999999' 
TABS,ioos:station:wmo:42043:1,2009-02-02T09:30:00Z,28.9818,-94.9186,2.0,227.7349196,34.52493157,-99999.0,'11111222,11111222,99999999' 
TABS,ioos:station:wmo:42043:1,2009-02-02T10:00:00Z,28.9818,-94.9186,2.0,235.6061607,30.27227114,-99999.0,'11111222,11111222,99999999' 
TABS,ioos:station:wmo:42043:1,2009-02-02T10:30:00Z,28.9818,-94.9186,2.0,240.8383386,23.9908024,-99999.0,'11111222,11111222,99999999' 
TABS,ioos:station:wmo:42043:1,2009-02-02T11:00:00Z,28.9818,-94.9186,2.0,236.261512,23.13655333,-99999.0,'11111222,11111222,99999999' 
TABS,ioos:station:wmo:42043:1,2009-02-02T11:30:00Z,28.9818,-94.9186,2.0,232.9186274,25.5081732,-99999.0,'11111222,11111222,99999999' 
TABS,ioos:station:wmo:42043:1,2009-02-02T12:00:00Z,28.9818,-94.9186,2.0,247.757957,22.95819244,-99999.0,'11111222,11111222,99999999' 
TABS,ioos:station:wmo:42043:1,2009-02-02T12:30:00Z,28.9818,-94.9186,2.0,241.935325,28.88647088,-99999.0,'11111222,11111222,99999999' 
TABS,ioos:station:wmo:42043:1,2009-02-02T13:00:00Z,28.9818,-94.9186,2.0,244.2756768,34.12160166,-99999.0,'11111222,11111222,99999999' 
TABS,ioos:station:wmo:42043:1,2009-02-02T13:30:00Z,28.9818,-94.9186,2.0,244.7375969,33.03973971,-99999.0,'11111222,11111222,99999999' 
TABS,ioos:station:wmo:42043:1,2009-02-02T14:00:00Z,28.9818,-94.9186,2.0,247.2715698,34.21698409,-99999.0,'11111222,11111222,99999999' 
TABS,ioos:station:wmo:42043:1,2009-02-02T14:30:00Z,28.9818,-94.9186,2.0,247.6067304,34.17719122,-99999.0,'11111222,11111222,99999999' 
TABS,ioos:station:wmo:42043:1,2009-02-02T15:00:00Z,28.9818,-94.9186,2.0,242.8248504,34.88016342,-99999.0,'11111222,11111222,99999999' 
TABS,ioos:station:wmo:42043:1,2009-02-02T15:30:00Z,28.9818,-94.9186,2.0,242.4699574,40.11180001,-99999.0,'11111222,11111222,99999999' 
TABS,ioos:station:wmo:42043:1,2009-02-02T16:00:00Z,28.9818,-94.9186,2.0,241.9256073,43.47529413,-99999.0,'11111222,11111222,99999999' 
TABS,ioos:station:wmo:42043:1,2009-02-02T16:30:00Z,28.9818,-94.9186,2.0,238.8633056,46.68555665,-99999.0,'11111222,11111222,99999999' 
TABS,ioos:station:wmo:42043:1,2009-02-02T17:00:00Z,28.9818,-94.9186,2.0,238.6300965,48.42898512,-99999.0,'11111222,11111222,99999999' 
TABS,ioos:station:wmo:42043:1,2009-02-02T17:30:00Z,28.9818,-94.9186,2.0,239.7008726,47.72955583,-99999.0,'11111222,11111222,99999999' 
TABS,ioos:station:wmo:42043:1,2009-02-02T18:00:00Z,28.9818,-94.9186,2.0,242.3818971,49.6580346,-99999.0,'11111222,11111222,99999999' 
TABS,ioos:station:wmo:42043:1,2009-02-02T18:30:00Z,28.9818,-94.9186,2.0,240.1983714,54.1858404,-99999.0,'11111222,11111222,99999999' 
TABS,ioos:station:wmo:42043:1,2009-02-02T19:00:00Z,28.9818,-94.9186,2.0,243.6924693,55.64287915,-99999.0,'11111222,11111222,99999999' 
TABS,ioos:station:wmo:42043:1,2009-02-02T19:30:00Z,28.9818,-94.9186,2.0,240.5855621,52.63501686,-99999.0,'11111222,11111222,99999999' 
TABS,ioos:station:wmo:42043:1,2009-02-02T20:00:00Z,28.9818,-94.9186,2.0,242.9463828,53.01015186,-99999.0,'11111222,11111222,99999999' 
TABS,ioos:station:wmo:42043:1,2009-02-02T20:30:00Z,28.9818,-94.9186,2.0,247.5729322,50.19643912,-99999.0,'11111222,11111222,99999999' 
TABS,ioos:station:wmo:42043:1,2009-02-02T21:00:00Z,28.9818,-94.9186,2.0,244.3857966,51.72290788,-99999.0,'11111222,11111222,99999999' 
TABS,ioos:station:wmo:42043:1,2009-02-02T21:30:00Z,28.9818,-94.9186,2.0,244.415042,50.18024013,-99999.0,'11111222,11111222,99999999' 
TABS,ioos:station:wmo:42043:1,2009-02-02T22:00:00Z,28.9818,-94.9186,2.0,248.0707555,48.41275142,-99999.0,'11111222,11111222,99999999' 
TABS,ioos:station:wmo:42043:1,2009-02-02T22:30:00Z,28.9818,-94.9186,2.0,252.3038569,47.30844851,-99999.0,'11111222,11111222,99999999' 
TABS,ioos:station:wmo:42043:1,2009-02-02T23:00:00Z,28.9818,-94.9186,2.0,249.2956859,44.88894073,-99999.0,'11111222,11111222,99999999' 
TABS,ioos:station:wmo:42043:1,2009-02-02T23:30:00Z,28.9818,-94.9186,2.0,247.5111897,46.61473801,-99999.0,'11111222,11111222,99999999' 
TABS,ioos:station:wmo:42043:1,2009-02-03T00:00:00Z,28.9818,-94.9186,2.0,246.0260227,41.83937022,-99999.0,'11111222,11111222,99999999' 
TABS,ioos:station:wmo:42043:1,2009-02-03T00:30:00Z,28.9818,-94.9186,2.0,247.9501353,42.88674038,-99999.0,'11111222,11111222,99999999' 
TABS,ioos:station:wmo:42043:1,2009-02-03T01:00:00Z,28.9818,-94.9186,2.0,248.3426913,41.24120876,-99999.0,'11111222,11111222,99999999' 
TABS,ioos:station:wmo:42043:1,2009-02-03T01:30:00Z,28.9818,-94.9186,2.0,248.1600405,41.8000299,-99999.0,'11111222,11111222,99999999' 
TABS,ioos:station:wmo:42043:1,2009-02-03T02:00:00Z,28.9818,-94.9186,2.0,246.1819437,39.37321932,-99999.0,'11111222,11111222,99999999' 
TABS,ioos:station:wmo:42043:1,2009-02-03T02:30:00Z,28.9818,-94.9186,2.0,247.1852347,38.96868615,-99999.0,'11111222,11111222,99999999' 
TABS,ioos:station:wmo:42043:1,2009-02-03T03:00:00Z,28.9818,-94.9186,2.0,247.9324627,39.2341331,-99999.0,'11111222,11111222,99999999' 
TABS,ioos:station:wmo:42043:1,2009-02-03T03:30:00Z,28.9818,-94.9186,2.0,248.9985185,40.68238931,-99999.0,'11111222,11111222,99999999' 
TABS,ioos:station:wmo:42043:1,2009-02-03T04:00:00Z,28.9818,-94.9186,2.0,243.8686396,37.78168869,-99999.0,'11111222,11111222,99999999' 
TABS,ioos:station:wmo:42043:1,2009-02-03T04:30:00Z,28.9818,-94.9186,2.0,245.4879457,32.20216763,-99999.0,'11111222,11111222,99999999' 
TABS,ioos:station:wmo:42043:1,2009-02-03T05:00:00Z,28.9818,-94.9186,2.0,246.3113048,29.49512841,-99999.0,'11111222,11111222,99999999' 
TABS,ioos:station:wmo:42043:1,2009-02-03T05:30:00Z,28.9818,-94.9186,2.0,241.8790951,27.34824492,-99999.0,'11111222,11111222,99999999' 
TABS,ioos:station:wmo:42043:1,2009-02-03T06:00:00Z,28.9818,-94.9186,2.0,239.8498907,30.54183524,-99999.0,'11111222,11111222,99999999' 
TABS,ioos:station:wmo:42043:1,2009-02-03T06:30:00Z,28.9818,-94.9186,2.0,244.7794878,27.2472861,-99999.0,'11111222,11111222,99999999' 
TABS,ioos:station:wmo:42043:1,2009-02-03T07:00:00Z,28.9818,-94.9186,2.0,243.1680563,26.91807757,-99999.0,'11111222,11111222,99999999' 
TABS,ioos:station:wmo:42043:1,2009-02-03T07:30:00Z,28.9818,-94.9186,2.0,246.9970363,27.63753969,-99999.0,'11111222,11111222,99999999' 
TABS,ioos:station:wmo:42043:1,2009-02-03T08:00:00Z,28.9818,-94.9186,2.0,243.5665895,32.99997879,-99999.0,'11111222,11111222,99999999' 
TABS,ioos:station:wmo:42043:1,2009-02-03T08:30:00Z,28.9818,-94.9186,2.0,243.5241144,28.62170505,-99999.0,'11111222,11111222,99999999' 
TABS,ioos:station:wmo:42043:1,2009-02-03T09:00:00Z,28.9818,-94.9186,2.0,245.2270881,30.88179399,-99999.0,'11111222,11111222,99999999' 
TABS,ioos:station:wmo:42043:1,2009-02-03T09:30:00Z,28.9818,-94.9186,2.0,250.8144794,30.67356028,-99999.0,'11111222,11111222,99999999' 
TABS,ioos:station:wmo:42043:1,2009-02-03T10:00:00Z,28.9818,-94.9186,2.0,246.9593177,27.56920383,-99999.0,'11111222,11111222,99999999' 
TABS,ioos:station:wmo:42043:1,2009-02-03T10:30:00Z,28.9818,-94.9186,2.0,251.3833586,29.97854233,-99999.0,'11111222,11111222,99999999' 
TABS,ioos:station:wmo:42043:1,2009-02-03T11:00:00Z,28.9818,-94.9186,2.0,252.2964866,25.74936504,-99999.0,'11111222,11111222,99999999' 
TABS,ioos:station:wmo:42043:1,2009-02-03T11:30:00Z,28.9818,-94.9186,2.0,253.5507862,23.44972708,-99999.0,'11111222,11111222,99999999' 
TABS,ioos:station:wmo:42043:1,2009-02-03T12:00:00Z,28.9818,-94.9186,2.0,260.3968273,21.46070828,-99999.0,'11111222,11111222,99999999' 
TABS,ioos:station:wmo:42043:1,2009-02-03T12:30:00Z,28.9818,-94.9186,2.0,259.8081011,19.89388851,-99999.0,'11111222,11111222,99999999' 
TABS,ioos:station:wmo:42043:1,2009-02-03T13:00:00Z,28.9818,-94.9186,2.0,250.4772248,21.99444021,-99999.0,'11111222,11111222,99999999' 
TABS,ioos:station:wmo:42043:1,2009-02-03T13:30:00Z,28.9818,-94.9186,2.0,251.9444685,20.03663145,-99999.0,'11111222,11111222,99999999' 
TABS,ioos:station:wmo:42043:1,2009-02-03T14:00:00Z,28.9818,-94.9186,2.0,244.8924181,19.16036012,-99999.0,'11111222,11111222,99999999' 
TABS,ioos:station:wmo:42043:1,2009-02-03T14:30:00Z,28.9818,-94.9186,2.0,246.7115002,19.32439132,-99999.0,'11111222,11111222,99999999' 
TABS,ioos:station:wmo:42043:1,2009-02-03T15:00:00Z,28.9818,-94.9186,2.0,245.6554334,19.96519471,-99999.0,'11111222,11111222,99999999' 
TABS,ioos:station:wmo:42043:1,2009-02-03T15:30:00Z,28.9818,-94.9186,2.0,241.007349,21.43629166,-99999.0,'11111222,11111222,99999999' 
TABS,ioos:station:wmo:42043:1,2009-02-03T16:00:00Z,28.9818,-94.9186,2.0,241.5307267,20.99932618,-99999.0,'11111222,11111222,99999999' 
TABS,ioos:station:wmo:42043:1,2009-02-03T16:30:00Z,28.9818,-94.9186,2.0,245.3205226,18.75287978,-99999.0,'11111222,11111222,99999999' 
TABS,ioos:station:wmo:42043:1,2009-02-03T17:00:00Z,28.9818,-94.9186,2.0,246.1579517,20.70701572,-99999.0,'11111222,11111222,99999999' 
TABS,ioos:station:wmo:42043:1,2009-02-03T17:30:00Z,28.9818,-94.9186,2.0,244.3232952,21.04840374,-99999.0,'11111222,11111222,99999999' 
TABS,ioos:station:wmo:42043:1,2009-02-03T18:00:00Z,28.9818,-94.9186,2.0,239.0947502,20.03447529,-99999.0,'11111222,11111222,99999999' 
TABS,ioos:station:wmo:42043:1,2009-02-03T18:30:00Z,28.9818,-94.9186,2.0,236.5670971,23.45018763,-99999.0,'11111222,11111222,99999999' 
TABS,ioos:station:wmo:42043:1,2009-02-03T19:00:00Z,28.9818,-94.9186,2.0,234.7622495,26.39671381,-99999.0,'11111222,11111222,99999999' 
TABS,ioos:station:wmo:42043:1,2009-02-03T19:30:00Z,28.9818,-94.9186,2.0,227.4032757,25.79673817,-99999.0,'11111222,11111222,99999999' 
TABS,ioos:station:wmo:42043:1,2009-02-03T20:00:00Z,28.9818,-94.9186,2.0,228.8335217,24.53494243,-99999.0,'11111222,11111222,99999999' 
TABS,ioos:station:wmo:42043:1,2009-02-03T20:30:00Z,28.9818,-94.9186,2.0,231.3321711,23.27145247,-99999.0,'11111222,11111222,99999999' 
TABS,ioos:station:wmo:42043:1,2009-02-03T21:00:00Z,28.9818,-94.9186,2.0,233.2259607,22.6340319,-99999.0,'11111222,11111222,99999999' 
TABS,ioos:station:wmo:42043:1,2009-02-03T21:30:00Z,28.9818,-94.9186,2.0,229.7435635,22.14466301,-99999.0,'11111222,11111222,99999999' 
TABS,ioos:station:wmo:42043:1,2009-02-03T22:00:00Z,28.9818,-94.9186,2.0,224.1291399,17.22003775,-99999.0,'11111222,11111222,99999999' 
TABS,ioos:station:wmo:42043:1,2009-02-03T22:30:00Z,28.9818,-94.9186,2.0,226.6822144,16.61710264,-99999.0,'11111222,11111222,99999999' 
TABS,ioos:station:wmo:42043:1,2009-02-03T23:00:00Z,28.9818,-94.9186,2.0,232.5370752,14.50077584,-99999.0,'11111222,11111222,99999999' 
TABS,ioos:station:wmo:42043:1,2009-02-03T23:30:00Z,28.9818,-94.9186,2.0,225.1055911,11.47636266,-99999.0,'11111222,11111222,99999999' 
TABS,ioos:station:wmo:42043:1,2009-02-04T00:00:00Z,28.9818,-94.9186,2.0,223.4938365,13.4538173,-99999.0,'11111222,11111222,99999999' 
TABS,ioos:station:wmo:42043:1,2009-02-04T00:30:00Z,28.9818,-94.9186,2.0,229.2758019,13.18180944,-99999.0,'11111222,11111222,99999999' 
TABS,ioos:station:wmo:42043:1,2009-02-04T01:00:00Z,28.9818,-94.9186,2.0,230.5444693,15.07534411,-99999.0,'11111222,11111222,99999999' 
TABS,ioos:station:wmo:42043:1,2009-02-04T01:30:00Z,28.9818,-94.9186,2.0,219.2621971,16.48036711,-99999.0,'11111222,11111222,99999999' 
TABS,ioos:station:wmo:42043:1,2009-02-04T02:00:00Z,28.9818,-94.9186,2.0,222.2516026,17.69802249,-99999.0,'11111222,11111222,99999999' 
TABS,ioos:station:wmo:42043:1,2009-02-04T02:30:00Z,28.9818,-94.9186,2.0,224.7264162,17.79100897,-99999.0,'11111222,11111222,99999999' 
TABS,ioos:station:wmo:42043:1,2009-02-04T03:00:00Z,28.9818,-94.9186,2.0,220.5516417,20.14959305,-99999.0,'11111222,11111222,99999999' 
TABS,ioos:station:wmo:42043:1,2009-02-04T03:30:00Z,28.9818,-94.9186,2.0,219.9229659,21.81496963,-99999.0,'11111222,11111222,99999999' 
TABS,ioos:station:wmo:42043:1,2009-02-04T04:00:00Z,28.9818,-94.9186,2.0,223.9067923,22.98515173,-99999.0,'11111222,11111222,99999999' 
TABS,ioos:station:wmo:42043:1,2009-02-04T04:30:00Z,28.9818,-94.9186,2.0,223.7611418,24.53526645,-99999.0,'11111222,11111222,99999999' 
TABS,ioos:station:wmo:42043:1,2009-02-04T05:00:00Z,28.9818,-94.9186,2.0,229.8129107,27.13545651,-99999.0,'11111222,11111222,99999999' 
TABS,ioos:station:wmo:42043:1,2009-02-04T05:30:00Z,28.9818,-94.9186,2.0,229.0637571,30.82959779,-99999.0,'11111222,11111222,99999999' 
TABS,ioos:station:wmo:42043:1,2009-02-04T06:00:00Z,28.9818,-94.9186,2.0,231.6231144,30.95870314,-99999.0,'11111222,11111222,99999999' 
TABS,ioos:station:wmo:42043:1,2009-02-04T06:30:00Z,28.9818,-94.9186,2.0,233.2784166,33.14811156,-99999.0,'11111222,11111222,99999999' 
TABS,ioos:station:wmo:42043:1,2009-02-04T07:00:00Z,28.9818,-94.9186,2.0,235.7712318,32.76481344,-99999.0,'11111222,11111222,99999999' 
TABS,ioos:station:wmo:42043:1,2009-02-04T07:30:00Z,28.9818,-94.9186,2.0,236.0508493,35.00748634,-99999.0,'11111222,11111222,99999999' 
TABS,ioos:station:wmo:42043:1,2009-02-04T08:00:00Z,28.9818,-94.9186,2.0,240.1208553,33.96452414,-99999.0,'11111222,11111222,99999999' 
TABS,ioos:station:wmo:42043:1,2009-02-04T08:30:00Z,28.9818,-94.9186,2.0,242.0944526,33.84543839,-99999.0,'11111222,11111222,99999999' 
TABS,ioos:station:wmo:42043:1,2009-02-04T09:00:00Z,28.9818,-94.9186,2.0,244.9827441,32.11271399,-99999.0,'11111222,11111222,99999999' 
TABS,ioos:station:wmo:42043:1,2009-02-04T09:30:00Z,28.9818,-94.9186,2.0,248.237631,29.69640551,-99999.0,'11111222,11111222,99999999' 
TABS,ioos:station:wmo:42043:1,2009-02-04T10:00:00Z,28.9818,-94.9186,2.0,249.1928367,29.95345723,-99999.0,'11111222,11111222,99999999' 
TABS,ioos:station:wmo:42043:1,2009-02-04T10:30:00Z,28.9818,-94.9186,2.0,251.8025733,28.17929914,-99999.0,'11111222,11111222,99999999' 
TABS,ioos:station:wmo:42043:1,2009-02-04T11:00:00Z,28.9818,-94.9186,2.0,251.4649677,30.89233724,-99999.0,'11111222,11111222,99999999' 
TABS,ioos:station:wmo:42043:1,2009-02-04T11:30:00Z,28.9818,-94.9186,2.0,254.6398578,32.65643275,-99999.0,'11111222,11111222,99999999' 
TABS,ioos:station:wmo:42043:1,2009-02-04T12:00:00Z,28.9818,-94.9186,2.0,259.9324835,32.55116895,-99999.0,'11111222,11111222,99999999' 
TABS,ioos:station:wmo:42043:1,2009-02-04T12:30:00Z,28.9818,-94.9186,2.0,265.2614883,33.53459855,-99999.0,'11111222,11111222,99999999' 
TABS,ioos:station:wmo:42043:1,2009-02-04T13:00:00Z,28.9818,-94.9186,2.0,268.5233889,33.77120815,-99999.0,'11111222,11111222,99999999' 
TABS,ioos:station:wmo:42043:1,2009-02-04T13:30:00Z,28.9818,-94.9186,2.0,265.9574064,30.07481338,-99999.0,'11111222,11111222,99999999' 
TABS,ioos:station:wmo:42043:1,2009-02-04T14:00:00Z,28.9818,-94.9186,2.0,266.9231626,29.8129653,-99999.0,'11111222,11111222,99999999' 
TABS,ioos:station:wmo:42043:1,2009-02-04T14:30:00Z,28.9818,-94.9186,2.0,269.4034423,35.56192486,-99999.0,'11111222,11111222,99999999' 
TABS,ioos:station:wmo:42043:1,2009-02-04T15:00:00Z,28.9818,-94.9186,2.0,268.1933141,31.72576398,-99999.0,'11111222,11111222,99999999' 
TABS,ioos:station:wmo:42043:1,2009-02-04T15:30:00Z,28.9818,-94.9186,2.0,268.9601231,33.62553345,-99999.0,'11111222,11111222,99999999' 
TABS,ioos:station:wmo:42043:1,2009-02-04T16:00:00Z,28.9818,-94.9186,2.0,262.4931043,30.92502546,-99999.0,'11111222,11111222,99999999' 